Location: Turrell
(35.3798°N, 90.2579°W)
Time: 15:25:40
(UTC+00:00)

Daily predictions for brighter satellites

Satellite Brightness Start Highest point End
(mag) Time Altitude Azimuth Time Altitude Azimuth Time Altitude Azimuth
Lacrosse 4 Rocket 4.1 12:04:56 10° NNE 12:07:11 15° NE 12:09:26 10° E
Cosmos 1315 Rocket 2.9 12:05:31 10° S 12:09:11 71° E 12:12:55 10° NNE
Hubble Space Telescope 2.5 12:10:48 10° SW 12:13:51 23° S 12:16:55 10° ESE
Cosmos 2360 Rocket 2.3 12:08:51 10° SW 12:14:20 56° WNW 12:19:52 10° NNE
Cosmos 2278 4.4 12:10:02 10° SW 12:15:04 33° WNW 12:20:08 10° N
USA 229 DEB 3.7 12:10:01 10° SSW 12:15:43 74° ESE 12:22:03 10° NE
USA 229 3.7 12:10:05 10° SSW 12:15:48 73° ESE 12:22:07 10° NE
DELTA 2 R/B (1) 3.7 12:11:33 10° W 12:17:04 65° NNW 12:22:37 10° ENE
ATLAS 3B R/B 3.4 12:10:23 10° SSW 12:17:42 70° ESE 12:25:29 10° NE
Cosmos 1356 Rocket 3.5 12:14:43 10° S 12:18:31 74° E 12:22:21 10° NNE
Cosmos 2333 4.2 12:14:53 10° SSW 12:20:32 64° WNW 12:26:10 10° NNE
Cosmos 1802 Rocket 4.1 12:16:57 10° SSW 12:23:02 60° W 12:29:16 10° N
